This demonstration page uses our WeatherBlox Daily Observations layout. Learn more.

Left ArrowRight Arrow

53.62937, 11.41316

Hourly Observations for March 19, 2018

Temp ( °F °C ) Dew Point ( °F °C ) Humidity (%) Winds ( mph kmh ) Pressure ( in mb ) Visibility ( mi km ) Precip ( " mm )
6:50 am 06:50 Mostly Sunny 21 -6 16 -9 80 80 ENE 5 7 30.09 1019 7 11 N/A
7:20 am 07:20 Mostly Sunny 23 -5 16 -9 74 74 ENE 5 7 30.09 1019 7 11 N/A
7:50 am 07:50 Mostly Sunny 25 -4 18 -8 74 74 ENE 6 9 30.09 1019 7 11 N/A
8:20 am 08:20 Mostly Sunny 27 -3 16 -9 64 64 E 5 7 30.09 1019 7 11 N/A
8:50 am 08:50 Mostly Sunny 28 -2 14 -10 55 55 E 5 7 30.09 1019 7 11 N/A
9:20 am 09:20 Mostly Sunny 30 -1 14 -10 51 51 ENE 5 7 30.09 1019 7 11 N/A
9:50 am 09:50 Mostly Sunny 32 0 5 -15 32 32 ESE 5 7 30.09 1019 7 11 N/A
10:20 am 10:20 Mostly Sunny 32 0 3 -16 29 29 E 5 7 30.09 1019 7 11 N/A
10:50 am 10:50 Mostly Sunny 34 1 5 -15 29 29 NNE 5 7 30.09 1019 7 11 N/A
11:20 am 11:20 Mostly Sunny 36 2 3 -16 25 25 E 6 9 30.09 1019 7 11 N/A
11:50 am 11:50 Mostly Sunny 36 2 5 -15 27 27 VRB 5 7 30.06 1018 7 11 N/A
12:20 pm 12:20 Mostly Sunny 36 2 5 -15 27 27 E 5 7 30.06 1018 7 11 N/A
12:50 pm 12:50 Mostly Sunny 36 2 5 -15 27 27 E 6 9 30.06 1018 7 11 N/A
1:20 pm 13:20 Mostly Sunny 37 3 7 -14 28 28 VRB 5 7 30.03 1017 7 11 N/A
1:50 pm 13:50 Mostly Sunny 37 3 5 -15 26 26 NNE 8 13 30.03 1017 7 11 N/A
2:20 pm 14:20 Mostly Sunny 37 3 7 -14 28 28 NE 6 9 30.03 1017 7 11 N/A
2:50 pm 14:50 Mostly Sunny 37 3 7 -14 28 28 ENE 8 13 30.03 1017 7 11 N/A
3:20 pm 15:20 Mostly Sunny 37 3 5 -15 26 26 VRB 3 6 30.00 1016 7 11 N/A
3:50 pm 15:50 Mostly Sunny 39 4 5 -15 24 24 NE 5 7 30.00 1016 7 11 N/A
4:20 pm 16:20 Mostly Sunny 37 3 3 -16 23 23 N 5 7 29.97 1015 7 11 N/A
4:50 pm 16:50 Mostly Sunny 39 4 3 -16 22 22 VRB 2 4 29.97 1015 7 11 N/A
5:20 pm 17:20 Mostly Sunny 37 3 7 -14 28 28 WNW 5 7 29.97 1015 7 11 N/A
5:50 pm 17:50 Mostly Sunny 37 3 10 -12 33 33 VRB 2 4 29.97 1015 7 11 N/A
6:20 pm 18:20 Mostly Sunny 36 2 14 -10 41 41 WNW 3 6 29.97 1015 7 11 N/A

Powered by AerisWeather